Details From KGJT - Walker Fld
To KBCE - Bryce Canyon
Flight Number -
Tags Decoded
Created
Modified
Stats Distance 191 nm / 354 km
Max Altitude 0 ft / 0 m
Waypoints 4
Social Downloads 2
Likes 0
Share VATSIM

Download

Looking for another format? Having issues loading an existing format? Contact us
Advertisement - Login to hide

Notes

Decoded

Route

KGJT JNC HVE KBCE

ID Type Via Altitude Latitude Longitude Leg Dist Tot Dist Heading (true) Name
O KGJT APT - 0 ft / 0 m 39.10990˚ -108.52989˚ - 0 nm - -
JNC VOR - 0 ft / 0 m 39.05956˚ -108.79258˚ 12 nm 12 nm 256° / 256° GRAND JUNCTION VOR-DME
HVE VOR - 0 ft / 0 m 38.41681˚ -110.69972˚ 97 nm 109 nm 247° / 246° HANKSVILLE VORTAC
O KBCE APT - 0 ft / 0 m 37.69938˚ -112.15475˚ 81 nm 191 nm 238° / 237° -

Altitude Profile

Advertisement - Login to hide

Weather


0- 5 10 15 20 25 30 35+ Temperature / ° C

Clouds and Precipitation
Forecast for 2018-05-22 12:00 UTC. Updated an hour ago

Ground ~20,000 ft ~40,000 ft Winds

KGJT

Details ICAO KGJT (GJT)
Name WALKER FLD
Region United States
Timezone America/Denver (UTC-6.0)
Stats Elevation 4,858 ft / 1,481 m (AMSL)
Location 39.120479° -108.525609°
Runways 2
Magnetic Variation 9.788° E

METAR

KGJT 221153Z AUTO 13011KT 10SM CLR 14/02 A2990 RMK AO2 SLP060 T01440017 10222 20144 51007

Decode

TAF

TAF KGJT 221120Z 2212/2312 09012KT P6SM SCT090 BKN200 FM221700 17008KT P6SM BKN100 OVC150 FM222000 23010KT P6SM VCSH BKN090 OVC100 FM222200 25010KT P6SM SCT090 BKN100 FM230500 10006KT P6SM FEW090 SCT200

Decode

Departure Runways

ID Width Length Bearing (true) Bearing (mag) Surface Threshold Offset Overrun Length
04 75 ft / 23 m 5,495 ft / 1,675 m 54.33° 44.54° Asphalt 0 ft / 0 m 0 ft / 0 m
11 151 ft / 46 m 10,490 ft / 3,197 m 125.28° 115.49° Asphalt 0 ft / 0 m 98 ft / 30 m
22 75 ft / 23 m 5,495 ft / 1,675 m 234.34° 224.55° Asphalt 0 ft / 0 m 0 ft / 0 m
29 151 ft / 46 m 10,490 ft / 3,197 m 305.30° 295.51° Asphalt 0 ft / 0 m 98 ft / 30 m

KBCE

Details ICAO KBCE (BCE)
Name BRYCE CANYON
Region United States
Timezone America/Denver (UTC-6.0)
Stats Elevation 7,590 ft / 2,313 m (AMSL)
Location 37.706370° -112.145471°
Runways 1
Magnetic Variation 10.975° E

METAR

KBCE 221153Z AUTO 13010KT 10SM CLR 07/M05 A3001 RMK AO2 SLP064 T00671050 10133 20056 56001

Decode

TAF

KBCE 221122Z 2212/2312 15010KT P6SM VCSH BKN100 FM221800 15010KT P6SM -SHRA VCTS SCT060CB BKN080 FM222300 26008KT P6SM VCSH FEW060 BKN080 FM230300 29006KT P6SM SCT080 BKN110

Decode

Destination Runways

ID Width Length Bearing (true) Bearing (mag) Surface Threshold Offset Overrun Length
03 75 ft / 23 m 7,399 ft / 2,255 m 46.37° 35.39° Asphalt 0 ft / 0 m 0 ft / 0 m
21 75 ft / 23 m 7,399 ft / 2,255 m 226.38° 215.40° Asphalt 0 ft / 0 m 0 ft / 0 m